sat.trackr.live / text

‹ back to catalog

DUTHSAT-2

NORAD 64530 · 2025-135C

PAYLOAD ACTIVE UNKNOWN

§ Identity

Operator
Country
GREC
Launch date
2025-06-23
Launch site
AFWTR
Launch vehicle
Mass (kg)
RCS (m²)

External: N2YO · Heavens-Above · Gunter

§ Orbital elements

Epoch: 2026-05-24T23:48:14.460192Z

Period
94.35 min
Inclination
97.4591°
Eccentricity
0.0003382
Mean motion
15.26273974 rev/d
Perigee alt
484.6 km
Apogee alt
489.3 km
Semi-major
6,865.1 km
B*
4.6291e-4
RAAN
260.9262°
Arg perigee
264.1503°
Mean anomaly
95.9350°
Rev number
5,139

§ Raw data

DUTHSAT-21 64530U 25135C   26144.99183403  .00011937  00000+0  46291-3 0  99932 64530  97.4591 260.9262 0003382 264.1503  95.9350 15.26273974 51394

JSON: /api/v1/satellites/64530 · /tle

For live sub-satellite position, see the globe view (requires WebGL).

§ Visibility from observer

Set your observer location to see the next 7 days of passes ≥ 10°. The values pass through the URL so the page stays shareable.

No JS? Fill the form by hand. The geolocation button needs JavaScript.